Regional Weather Roundup
Issued by NWS Little Rock, AR

Home | Current Version | Previous Version | Text Only | Print | Product List | Glossary On
Versions: 1 2 3 4 5 6 7 8 9 10 11 12 13 14 15 16 17 18 19 20 21 22 23 24 25 26 27 28 29 30 31 32 33 34 35 36 37 38 39 40 41 42 43 44 45 46 47 48 49 50
000
ASUS44 KLZK 230605
RWRLZK

WEATHER ROUNDUP FOR ARKANSAS
NATIONAL WEATHER SERVICE LITTLE ROCK AR
100 AM CDT TUE SEP 23 2014

NOTE: "FAIR" INDICATES FEW OR NO CLOUDS BELOW 12,000 FEET WITH NO
SIGNIFICANT WEATHER AND/OR OBSTRUCTIONS TO VISIBILITY.

ARZ001-003-010-029-230700-
NORTHWEST ARKANSAS

CITY           SKY/WX    TMP DP  RH WIND       PRES   REMARKS
FAYETTEVILLE   CLEAR     50  50 100 CALM      30.23S
6HR MIN TEMP:  50; 6HR MAX TEMP:  70;

FORT SMITH     PTCLDY    61  57  87 CALM      30.20S
6HR MIN TEMP:  61; 6HR MAX TEMP:  74;

HARRISON       CLEAR     55  52  89 CALM      30.24S
6HR MIN TEMP:  53; 6HR MAX TEMP:  67;

BENTONVILLE    CLEAR     57  52  82 SE6       30.23F
6HR MIN TEMP:  57; 6HR MAX TEMP:  70;

ROGERS         PTCLDY    57  54  89 E7        30.24S
6HR MIN TEMP:  56; 6HR MAX TEMP:  68;

SILOAM SPGS    CLEAR     55  48  76 E5        30.23S
6HR MIN TEMP:  55; 6HR MAX TEMP:  70;

HIGHFILL       CLEAR     57  53  86 E6        30.22F
6HR MIN TEMP:  53; 6HR MAX TEMP:  69;

$$

ARZ004-005-016-230700-
NORTH CENTRAL ARKANSAS

CITY           SKY/WX    TMP DP  RH WIND       PRES   REMARKS
BATESVILLE     CLEAR     55  52  88 CALM      30.23S
6HR MIN TEMP:  55; 6HR MAX TEMP:  72;

FLIPPIN        CLEAR     52  46  82 CALM      30.23F
6HR MIN TEMP:  52; 6HR MAX TEMP:  70;

MTN HOME       CLEAR     54  52  93 NE3       30.23S
6HR MIN TEMP:  54; 6HR MAX TEMP:  65;

$$

ARZ040-041-230700-
WEST CENTRAL ARKANSAS

CITY           SKY/WX    TMP DP  RH WIND       PRES   REMARKS
MENA             N/A     54  52  94 CALM        N/A
MOUNT IDA      CLEAR     54  53  97 CALM      30.19R
6HR MIN TEMP:  54; 6HR MAX TEMP:  69;

$$

ARZ009-017-025-026-028-230700-
NORTHEAST ARKANSAS

CITY           SKY/WX    TMP DP  RH WIND       PRES   REMARKS
CORNING          N/A     54  50  87 NE7       30.24S
JONESBORO      CLEAR     57  49  74 NE5       30.23S
6HR MIN TEMP:  56; 6HR MAX TEMP:  68;

NEWPORT        CLEAR     56  51  83 CALM      30.24R
6HR MIN TEMP:  54; 6HR MAX TEMP:  69;

WALNUT RIDGE   CLEAR     55  41  58 N5        30.23R
6HR MIN TEMP:  55; 6HR MAX TEMP:  66;

BLYTHEVILLE    CLEAR     53  49  86 NE6       30.23F
6HR MIN TEMP:  52; 6HR MAX TEMP:  64;

$$

ARZ022-023-033-042-044-230700-
CENTRAL ARKANSAS

CITY           SKY/WX    TMP DP  RH WIND       PRES   REMARKS
LITTLE ROCK    CLEAR     57  50  77 NE7       30.21F
6HR MIN TEMP:  57; 6HR MAX TEMP:  72;

N LITTLE ROCK    N/A     60  52  75 NE8       30.21F
6HR MIN TEMP:  60; 6HR MAX TEMP:  71;

JACKSONVILLE   CLEAR     53  49  88 E1        30.21F
6HR MIN TEMP:  53; 6HR MAX TEMP:  70; 6HR PCP: TRACE;

SEARCY         CLEAR     54  49  83 NW3       30.23S
6HR MIN TEMP:  54; 6HR MAX TEMP:  71;

HOT SPRINGS    CLEAR     61  51  70 E5        30.19F
6HR MIN TEMP:  60; 6HR MAX TEMP:  74;

RUSSELLVILLE   CLEAR     58  53  84 CALM      30.21S
6HR MIN TEMP:  57; 6HR MAX TEMP:  70;

CLINTON        FAIR      54  54 100 CALM      30.24R
$$

ARZ036-230700-
EAST ARKANSAS

CITY           SKY/WX    TMP DP  RH WIND       PRES   REMARKS
WEST MEMPHIS   CLEAR     55  51  86 NE3       30.20S
6HR MIN TEMP:  55; 6HR MAX TEMP:  70;

$$

ARZ050-053-066-070-073-230700-
SOUTHWEST ARKANSAS

CITY           SKY/WX    TMP DP  RH WIND       PRES   REMARKS
ARKADELPHIA    FAIR      60  55  83 NE3       30.19S
6HR MIN TEMP:  60; 6HR MAX TEMP:  73;

CAMDEN         CLEAR     55  50  82 CALM      30.18S
TEXARKANA      CLEAR     58  56  93 CALM      30.18S
6HR MIN TEMP:  57; 6HR MAX TEMP:  74;

EL DORADO      CLEAR     60  53  77 NE3       30.18S
6HR MIN TEMP:  60; 6HR MAX TEMP:  72;

DE QUEEN       CLEAR     56  56 100 E3        30.18S
6HR MIN TEMP:  56; 6HR MAX TEMP:  73;

$$

ARZ056-057-069-230700-
SOUTHEAST ARKANSAS

CITY           SKY/WX    TMP DP  RH WIND       PRES   REMARKS
PINE BLUFF     CLEAR     61  51  70 NE8       30.20F
6HR MIN TEMP:  61; 6HR MAX TEMP:  72;

STUTTGART      CLEAR     55  48  76 NE7       30.22S
6HR MIN TEMP:  55; 6HR MAX TEMP:  68;

MONTICELLO     CLEAR     59  52  77 NE3       30.18S
6HR MIN TEMP:  59; 6HR MAX TEMP:  74; 6HR PCP: TRACE;


$$




USA.gov is the U.S. government's official web portal to all federal, state and local government web resources and services.